| time (UTC) | temp C | wind direction | speed KPH | gust KPH | rain 1hr cm | rain 24hr cm | rain mn cm | humidity % | barometer mb |
| 20260507155454 | 14 | 273 | 22.5 | 32.2 | 0.00 | 0.58 | 0.00 | 62 | 1027.4 |
| 20260507155152 | 14 | 280 | 22.5 | 32.2 | 0.00 | 0.58 | 0.00 | 60 | 1027.5 |
| 20260507154855 | 13 | 276 | 20.9 | 30.6 | 0.00 | 0.61 | 0.00 | 64 | 1027.4 |
| 20260507154544 | 13 | 283 | 22.5 | 33.8 | 0.00 | 0.64 | 0.00 | 63 | 1027.5 |
| 20260507154233 | 13 | 287 | 22.5 | 33.8 | 0.00 | 0.64 | 0.00 | 66 | 1027.6 |
| 20260507153923 | 13 | 275 | 24.1 | 33.8 | 0.00 | 0.66 | 0.00 | 64 | 1027.7 |
| 20260507153623 | 12 | 281 | 24.1 | 33.8 | 0.00 | 0.66 | 0.00 | 66 | 1027.8 |
| 20260507153320 | 12 | 273 | 22.5 | 33.8 | 0.00 | 0.69 | 0.00 | 67 | 1027.8 |
| 20260507152558 | 12 | 266 | 20.9 | 32.2 | 0.00 | 0.71 | 0.00 | 68 | 1027.9 |
| 20260507152250 | 12 | 274 | 20.9 | 33.8 | 0.00 | 0.74 | 0.00 | 70 | 1027.9 |
| 20260507151945 | 11 | 282 | 20.9 | 33.8 | 0.00 | 0.74 | 0.00 | 69 | 1027.9 |
| 20260507151215 | 11 | 280 | 22.5 | 33.8 | 0.00 | 0.76 | 0.00 | 72 | 1028.0 |
| 20260507150906 | 11 | 276 | 22.5 | 33.8 | 0.00 | 0.76 | 0.00 | 72 | 1028.2 |
| 20260507150606 | 10 | 273 | 22.5 | 33.8 | 0.00 | 0.79 | 0.00 | 71 | 1028.1 |
| 20260507150304 | 10 | 275 | 20.9 | 38.6 | 0.00 | 0.79 | 0.00 | 72 | 1028.1 |
| 20260507150008 | 10 | 279 | 22.5 | 38.6 | 0.00 | 0.79 | 0.00 | 74 | 1028.2 |
| 20260507145705 | 10 | 286 | 24.1 | 38.6 | 0.00 | 0.79 | 0.00 | 74 | 1028.2 |
| 20260507145400 | 10 | 278 | 24.1 | 38.6 | 0.00 | 0.79 | 0.00 | 75 | 1028.2 |
| 20260507145059 | 10 | 275 | 24.1 | 38.6 | 0.00 | 0.79 | 0.00 | 75 | 1028.2 |
| 20260507144800 | 10 | 278 | 24.1 | 38.6 | 0.00 | 0.79 | 0.00 | 75 | 1028.3 |
| 20260507144447 | 9 | 285 | 24.1 | 38.6 | 0.00 | 0.79 | 0.00 | 76 | 1028.3 |
| 20260507143301 | 8 | 275 | 25.7 | 37.0 | 0.00 | 0.79 | 0.00 | 78 | 1028.3 |
| 20260507142959 | 8 | 281 | 25.7 | 37.0 | 0.00 | 0.79 | 0.00 | 78 | 1028.3 |
| 20260507142647 | 8 | 286 | 25.7 | 37.0 | 0.00 | 0.79 | 0.00 | 78 | 1028.4 |
| 20260507142336 | 8 | 286 | 22.5 | 37.0 | 0.00 | 0.79 | 0.00 | 80 | 1028.4 |
| 20260507142031 | 8 | 271 | 24.1 | 37.0 | 0.00 | 0.79 | 0.00 | 79 | 1028.3 |
| 20260507141304 | 7 | 284 | 24.1 | 33.8 | 0.00 | 0.79 | 0.00 | 81 | 1028.4 |
| 20260507140540 | 7 | 276 | 22.5 | 33.8 | 0.00 | 0.79 | 0.00 | 83 | 1028.5 |
| 20260507135828 | 6 | 279 | 19.3 | 33.8 | 0.00 | 0.79 | 0.00 | 83 | 1028.5 |
| 20260507135521 | 6 | 279 | 20.9 | 33.8 | 0.00 | 0.79 | 0.00 | 85 | 1028.6 |
| 20260507135213 | 6 | 281 | 22.5 | 33.8 | 0.00 | 0.79 | 0.00 | 85 | 1028.5 |
| 20260507134912 | 6 | 287 | 22.5 | 33.8 | 0.00 | 0.79 | 0.00 | 84 | 1028.6 |
| 20260507134603 | 6 | 278 | 20.9 | 32.2 | 0.00 | 0.79 | 0.00 | 85 | 1028.6 |
| 20260507134301 | 6 | 273 | 20.9 | 30.6 | 0.00 | 0.79 | 0.00 | 85 | 1028.6 |
| 20260507133954 | 5 | 273 | 20.9 | 30.6 | 0.00 | 0.79 | 0.00 | 85 | 1028.6 |
| 20260507133644 | 5 | 275 | 20.9 | 32.2 | 0.00 | 0.79 | 0.00 | 86 | 1028.5 |
| 20260507133344 | 5 | 276 | 20.9 | 32.2 | 0.00 | 0.79 | 0.00 | 86 | 1028.6 |
| 20260507132608 | 5 | 272 | 20.9 | 32.2 | 0.00 | 0.79 | 0.00 | 87 | 1028.6 |
| 20260507130959 | 3 | 266 | 19.3 | 27.4 | 0.00 | 0.79 | 0.00 | 88 | 1028.6 |
| 20260507130650 | 3 | 268 | 19.3 | 27.4 | 0.00 | 0.79 | 0.00 | 89 | 1028.6 |
| 20260507130348 | 3 | 263 | 17.7 | 27.4 | 0.00 | 0.79 | 0.00 | 89 | 1028.6 |
| 20260507130049 | 3 | 266 | 17.7 | 27.4 | 0.00 | 0.79 | 0.00 | 89 | 1028.6 |
| 20260507125752 | 3 | 265 | 17.7 | 27.4 | 0.00 | 0.79 | 0.00 | 89 | 1028.6 |
| 20260507125449 | 3 | 266 | 17.7 | 27.4 | 0.00 | 0.79 | 0.00 | 89 | 1028.6 |
| 20260507124254 | 2 | 271 | 17.7 | 29.0 | 0.00 | 0.79 | 0.00 | 89 | 1028.6 |
| 20260507123948 | 2 | 272 | 17.7 | 29.0 | 0.00 | 0.79 | 0.00 | 89 | 1028.6 |
| 20260507123635 | 2 | 269 | 16.1 | 29.0 | 0.00 | 0.79 | 0.00 | 89 | 1028.6 |
| 20260507123322 | 2 | 268 | 16.1 | 24.1 | 0.00 | 0.79 | 0.00 | 89 | 1028.6 |
| 20260507123011 | 2 | 267 | 17.7 | 24.1 | 0.00 | 0.79 | 0.00 | 89 | 1028.7 |
| 20260507122701 | 2 | 265 | 16.1 | 24.1 | 0.00 | 0.79 | 0.00 | 89 | 1028.6 |
| 20260507122349 | 2 | 265 | 16.1 | 24.1 | 0.00 | 0.79 | 0.00 | 89 | 1028.6 |
| 20260507122049 | 2 | 267 | 16.1 | 24.1 | 0.00 | 0.79 | 0.00 | 89 | 1028.7 |
| 20260507121753 | 2 | 267 | 17.7 | 24.1 | 0.00 | 0.79 | 0.00 | 89 | 1028.7 |
| 20260507121442 | 2 | 269 | 17.7 | 24.1 | 0.00 | 0.79 | 0.00 | 89 | 1028.6 |
| 20260507121138 | 2 | 269 | 17.7 | 27.4 | 0.00 | 0.79 | 0.00 | 89 | 1028.5 |
| 20260507120831 | 2 | 273 | 17.7 | 27.4 | 0.00 | 0.79 | 0.00 | 89 | 1028.5 |
| 20260507120528 | 2 | 273 | 17.7 | 27.4 | 0.00 | 0.79 | 0.00 | 89 | 1028.4 |
| 20260507115815 | 2 | 274 | 17.7 | 29.0 | 0.00 | 0.79 | 0.00 | 89 | 1028.7 |
| 20260507115508 | 2 | 275 | 17.7 | 29.0 | 0.00 | 0.79 | 0.00 | 89 | 1028.7 |
| 20260507114301 | 2 | 274 | 19.3 | 29.0 | 0.00 | 0.79 | 0.00 | 89 | 1028.8 |
| 20260507114002 | 2 | 276 | 17.7 | 27.4 | 0.00 | 0.79 | 0.00 | 89 | 1028.8 |
| 20260507113655 | 2 | 275 | 17.7 | 27.4 | 0.00 | 0.79 | 0.00 | 90 | 1028.8 |
| 20260507113353 | 2 | 274 | 17.7 | 27.4 | 0.00 | 0.79 | 0.00 | 90 | 1029.0 |
| 20260507113047 | 2 | 275 | 17.7 | 27.4 | 0.00 | 0.79 | 0.00 | 90 | 1028.9 |
| 20260507112747 | 2 | 273 | 16.1 | 27.4 | 0.00 | 0.79 | 0.00 | 90 | 1028.9 |
| 20260507112444 | 1 | 273 | 16.1 | 27.4 | 0.00 | 0.79 | 0.00 | 90 | 1028.8 |
| 20260507112143 | 1 | 273 | 16.1 | 22.5 | 0.00 | 0.79 | 0.00 | 90 | 1028.9 |
| 20260507111830 | 1 | 272 | 16.1 | 22.5 | 0.00 | 0.79 | 0.00 | 91 | 1028.9 |
| 20260507111525 | 1 | 272 | 14.5 | 22.5 | 0.00 | 0.79 | 0.00 | 91 | 1028.8 |
| 20260507111220 | 1 | 271 | 14.5 | 22.5 | 0.00 | 0.79 | 0.00 | 91 | 1028.9 |
| 20260507110054 | 1 | 271 | 12.9 | 22.5 | 0.00 | 0.79 | 0.00 | 91 | 1029.1 |
| 20260507105331 | 1 | 271 | 14.5 | 22.5 | 0.00 | 0.79 | 0.00 | 91 | 1029.1 |
| 20260507104608 | 1 | 277 | 12.9 | 20.9 | 0.00 | 0.79 | 0.00 | 91 | 1029.4 |
| 20260507104301 | 1 | 277 | 12.9 | 20.9 | 0.00 | 0.79 | 0.00 | 91 | 1029.5 |
| 20260507103540 | 1 | 279 | 14.5 | 20.9 | 0.00 | 0.79 | 0.00 | 92 | 1029.6 |
| 20260507103233 | 1 | 279 | 14.5 | 20.9 | 0.00 | 0.79 | 0.00 | 92 | 1029.6 |
| 20260507102931 | 1 | 279 | 12.9 | 19.3 | 0.00 | 0.79 | 0.00 | 92 | 1029.7 |
| 20260507102629 | 1 | 279 | 12.9 | 20.9 | 0.00 | 0.79 | 0.00 | 92 | 1029.6 |
| 20260507102331 | 1 | 279 | 12.9 | 20.9 | 0.00 | 0.79 | 0.00 | 92 | 1029.6 |
| 20260507102031 | 1 | 279 | 12.9 | 20.9 | 0.00 | 0.79 | 0.00 | 92 | 1029.6 |
| 20260507101726 | 1 | 279 | 14.5 | 20.9 | 0.00 | 0.79 | 0.00 | 92 | 1029.7 |
| 20260507101418 | 1 | 280 | 14.5 | 20.9 | 0.00 | 0.79 | 0.00 | 92 | 1029.7 |
| 20260507101112 | 1 | 281 | 14.5 | 20.9 | 0.00 | 0.79 | 0.00 | 92 | 1029.7 |
| 20260507100805 | 1 | 284 | 12.9 | 20.9 | 0.00 | 0.79 | 0.00 | 92 | 1029.9 |
| 20260507100455 | 1 | 286 | 12.9 | 19.3 | 0.00 | 0.79 | 0.00 | 92 | 1029.9 |
| 20260507095258 | 1 | 289 | 12.9 | 19.3 | 0.00 | 0.79 | 0.00 | 93 | 1030.0 |
| 20260507094543 | 1 | 291 | 12.9 | 19.3 | 0.00 | 0.81 | 0.00 | 93 | 1030.0 |
| 20260507094243 | 1 | 292 | 12.9 | 19.3 | 0.00 | 0.81 | 0.00 | 93 | 1030.0 |
| 20260507093936 | 1 | 294 | 12.9 | 17.7 | 0.00 | 0.81 | 0.00 | 93 | 1030.0 |
| 20260507093633 | 1 | 296 | 12.9 | 17.7 | 0.00 | 0.84 | 0.00 | 93 | 1030.2 |
| 20260507093322 | 1 | 299 | 11.3 | 17.7 | 0.00 | 0.84 | 0.00 | 93 | 1030.1 |
| 20260507092557 | 1 | 306 | 11.3 | 17.7 | 0.00 | 0.84 | 0.00 | 93 | 1030.2 |
| 20260507092254 | 1 | 306 | 11.3 | 17.7 | 0.00 | 0.84 | 0.00 | 93 | 1030.3 |
| 20260507091957 | 1 | 309 | 11.3 | 17.7 | 0.00 | 0.84 | 0.00 | 93 | 1030.2 |
| 20260507091646 | 1 | 311 | 11.3 | 17.7 | 0.00 | 0.84 | 0.00 | 93 | 1030.2 |
| 20260507090917 | 1 | 313 | 11.3 | 17.7 | 0.00 | 0.84 | 0.00 | 93 | 1030.3 |
| 20260507090611 | 1 | 315 | 11.3 | 17.7 | 0.00 | 0.84 | 0.00 | 94 | 1030.4 |
| 20260507090257 | 1 | 319 | 11.3 | 17.7 | 0.00 | 0.84 | 0.00 | 94 | 1030.5 |
| 20260507085948 | 1 | 324 | 11.3 | 17.7 | 0.00 | 0.84 | 0.00 | 94 | 1030.6 |
| 20260507085637 | 1 | 328 | 11.3 | 20.9 | 0.00 | 0.86 | 0.00 | 94 | 1030.6 |
| 20260507084921 | 0 | 346 | 12.9 | 20.9 | 0.00 | 0.86 | 0.00 | 94 | 1030.6 |
| 20260507084622 | 0 | 355 | 12.9 | 20.9 | 0.00 | 0.86 | 0.00 | 93 | 1030.7 |
| 20260507084321 | 0 | 0 | 11.3 | 20.9 | 0.00 | 0.86 | 0.00 | 94 | 1030.7 |
| 20260507084016 | 0 | 59 | 11.3 | 20.9 | 0.00 | 0.86 | 0.00 | 94 | 1030.8 |
| 20260507083259 | 0 | 70 | 9.7 | 14.5 | 0.00 | 0.86 | 0.00 | 94 | 1030.7 |
| 20260507082954 | 0 | 71 | 9.7 | 14.5 | 0.00 | 0.86 | 0.00 | 94 | 1030.9 |
| 20260507082641 | 0 | 71 | 9.7 | 14.5 | 0.00 | 0.86 | 0.00 | 93 | 1030.9 |
| 20260507082338 | 0 | 71 | 9.7 | 14.5 | 0.00 | 0.86 | 0.00 | 93 | 1031.0 |
| 20260507082025 | 0 | 71 | 9.7 | 14.5 | 0.00 | 0.86 | 0.00 | 93 | 1031.0 |
| 20260507081301 | 0 | 71 | 8.0 | 12.9 | 0.00 | 0.89 | 0.00 | 93 | 1031.2 |
| 20260507080957 | 0 | 71 | 8.0 | 12.9 | 0.00 | 0.89 | 0.00 | 93 | 1031.2 |
| 20260507080654 | 0 | 71 | 8.0 | 12.9 | 0.00 | 0.89 | 0.00 | 93 | 1031.3 |
| 20260507080357 | 0 | 71 | 9.7 | 14.5 | 0.00 | 0.89 | 0.00 | 93 | 1031.3 |
| 20260507080050 | 0 | 71 | 9.7 | 14.5 | 0.00 | 0.89 | 0.00 | 93 | 1031.4 |
| 20260507075752 | 0 | 71 | 9.7 | 14.5 | 0.00 | 0.89 | 0.00 | 93 | 1031.3 |
| 20260507075445 | 0 | 71 | 9.7 | 14.5 | 0.00 | 0.89 | 0.00 | 94 | 1031.5 |
| 20260507075133 | 0 | 71 | 8.0 | 14.5 | 0.00 | 0.89 | 0.00 | 94 | 1031.5 |
| 20260507074827 | 0 | 71 | 8.0 | 14.5 | 0.00 | 0.91 | 0.00 | 94 | 1031.6 |
| 20260507074521 | 0 | 71 | 9.7 | 14.5 | 0.00 | 0.91 | 0.00 | 93 | 1031.7 |
| 20260507074214 | 0 | 71 | 8.0 | 12.9 | 0.00 | 0.91 | 0.00 | 93 | 1031.7 |
| 20260507073902 | 0 | 71 | 8.0 | 12.9 | 0.00 | 0.91 | 0.00 | 93 | 1031.6 |
| 20260507073553 | 0 | 71 | 8.0 | 12.9 | 0.00 | 0.91 | 0.00 | 93 | 1031.6 |
| 20260507073243 | 0 | 71 | 8.0 | 12.9 | 0.00 | 0.91 | 0.00 | 94 | 1031.6 |
| 20260507072943 | 0 | 71 | 8.0 | 12.9 | 0.00 | 0.91 | 0.00 | 93 | 1031.8 |
| 20260507072633 | 0 | 71 | 8.0 | 11.3 | 0.00 | 0.91 | 0.00 | 94 | 1031.8 |
| 20260507072324 | 0 | 71 | 8.0 | 11.3 | 0.00 | 0.91 | 0.00 | 94 | 1031.8 |
| 20260507071601 | 0 | 71 | 6.4 | 11.3 | 0.00 | 0.91 | 0.00 | 94 | 1031.9 |
| 20260507071301 | 0 | 71 | 6.4 | 9.7 | 0.00 | 0.91 | 0.00 | 93 | 1031.9 |
| 20260507070958 | 0 | 71 | 6.4 | 9.7 | 0.00 | 0.91 | 0.00 | 93 | 1031.9 |
| 20260507070653 | 0 | 71 | 6.4 | 9.7 | 0.00 | 0.91 | 0.00 | 93 | 1032.0 |
| 20260507070348 | 0 | 71 | 6.4 | 9.7 | 0.00 | 0.91 | 0.00 | 93 | 1032.0 |
| 20260507070052 | 0 | 71 | 6.4 | 9.7 | 0.00 | 0.91 | 0.00 | 93 | 1032.0 |
| 20260507065739 | 0 | 71 | 6.4 | 9.7 | 0.00 | 0.91 | 0.00 | 93 | 1032.0 |
| 20260507065434 | 0 | 71 | 6.4 | 9.7 | 0.00 | 0.91 | 0.00 | 93 | 1032.1 |
| 20260507065138 | 0 | 71 | 6.4 | 9.7 | 0.00 | 0.94 | 0.00 | 93 | 1032.1 |
| 20260507064838 | 0 | 71 | 4.8 | 9.7 | 0.00 | 0.94 | 0.00 | 93 | 1032.1 |
| 20260507064536 | 0 | 71 | 4.8 | 9.7 | 0.00 | 0.94 | 0.00 | 93 | 1032.3 |
| 20260507064223 | 0 | 71 | 6.4 | 9.7 | 0.00 | 0.94 | 0.00 | 93 | 1032.2 |
| 20260507063927 | 0 | 71 | 6.4 | 9.7 | 0.00 | 0.94 | 0.00 | 93 | 1032.3 |
| 20260507063620 | 0 | 71 | 6.4 | 12.9 | 0.00 | 0.94 | 0.00 | 93 | 1032.2 |
| 20260507063315 | 0 | 71 | 8.0 | 12.9 | 0.00 | 0.94 | 0.00 | 93 | 1032.3 |
| 20260507062554 | 0 | 71 | 8.0 | 12.9 | 0.00 | 0.94 | 0.00 | 93 | 1032.4 |
| 20260507062248 | 0 | 71 | 8.0 | 12.9 | 0.00 | 0.97 | 0.00 | 93 | 1032.3 |
| 20260507061517 | 0 | 71 | 8.0 | 12.9 | 0.00 | 0.97 | 0.00 | 93 | 1032.4 |
| 20260507060747 | 0 | 71 | 9.7 | 12.9 | 0.00 | 0.97 | 0.97 | 93 | 1032.6 |
| 20260507060451 | 1 | 71 | 9.7 | 12.9 | 0.00 | 0.97 | 0.97 | 93 | 1032.6 |
| 20260507060147 | 1 | 71 | 9.7 | 12.9 | 0.00 | 0.97 | 0.97 | 93 | 1032.6 |
| 20260507055836 | 0 | 71 | 8.0 | 12.9 | 0.00 | 0.97 | 0.97 | 93 | 1032.5 |
| 20260507055103 | 0 | 71 | 8.0 | 12.9 | 0.00 | 0.97 | 0.97 | 93 | 1032.7 |
| 20260507054759 | 0 | 71 | 8.0 | 12.9 | 0.00 | 0.97 | 0.97 | 93 | 1032.7 |
| 20260507054447 | 0 | 71 | 8.0 | 9.7 | 0.00 | 0.97 | 0.97 | 93 | 1032.7 |
| 20260507054145 | 0 | 71 | 6.4 | 9.7 | 0.00 | 0.97 | 0.97 | 93 | 1032.7 |
| 20260507053415 | 0 | 71 | 6.4 | 11.3 | 0.00 | 0.97 | 0.97 | 92 | 1032.7 |
| 20260507053118 | 0 | 71 | 6.4 | 11.3 | 0.00 | 0.97 | 0.97 | 92 | 1032.6 |
| 20260507052355 | 0 | 71 | 6.4 | 11.3 | 0.00 | 0.97 | 0.97 | 92 | 1032.6 |
| 20260507052047 | 0 | 71 | 6.4 | 11.3 | 0.00 | 0.97 | 0.97 | 93 | 1032.7 |
| 20260507051744 | 0 | 71 | 6.4 | 11.3 | 0.00 | 0.97 | 0.97 | 92 | 1032.8 |
| 20260507051447 | 0 | 71 | 6.4 | 9.7 | 0.00 | 0.97 | 0.97 | 92 | 1032.7 |
| 20260507051145 | 1 | 71 | 6.4 | 9.7 | 0.00 | 0.97 | 0.97 | 92 | 1032.7 |
| 20260507050843 | 1 | 71 | 6.4 | 9.7 | 0.00 | 0.97 | 0.97 | 92 | 1032.7 |
| 20260507050531 | 1 | 71 | 6.4 | 9.7 | 0.00 | 0.97 | 0.97 | 92 | 1032.7 |
| 20260507050233 | 1 | 71 | 6.4 | 9.7 | 0.00 | 0.97 | 0.97 | 92 | 1032.8 |
| 20260507045933 | 1 | 71 | 6.4 | 9.7 | 0.00 | 0.97 | 0.97 | 92 | 1032.7 |
| 20260507045634 | 1 | 71 | 6.4 | 11.3 | 0.00 | 0.99 | 0.97 | 92 | 1032.7 |
| 20260507045322 | 1 | 71 | 6.4 | 11.3 | 0.00 | 0.99 | 0.97 | 92 | 1032.8 |
| 20260507045009 | 1 | 71 | 6.4 | 11.3 | 0.00 | 0.99 | 0.97 | 92 | 1032.7 |
| 20260507044228 | 1 | 71 | 8.0 | 11.3 | 0.00 | 1.02 | 0.97 | 92 | 1032.8 |
| 20260507043924 | 1 | 71 | 8.0 | 11.3 | 0.00 | 1.02 | 0.97 | 92 | 1032.8 |
| 20260507042743 | 1 | 71 | 8.0 | 11.3 | 0.00 | 1.07 | 0.97 | 92 | 1032.8 |
| 20260507042429 | 1 | 71 | 8.0 | 11.3 | 0.00 | 1.07 | 0.97 | 92 | 1032.8 |
| 20260507042132 | 1 | 71 | 6.4 | 11.3 | 0.00 | 1.07 | 0.97 | 93 | 1032.9 |
| 20260507041400 | 1 | 71 | 6.4 | 9.7 | 0.00 | 1.09 | 0.97 | 92 | 1033.0 |
| 20260507041050 | 1 | 71 | 6.4 | 9.7 | 0.00 | 1.09 | 0.97 | 92 | 1033.0 |
| 20260507040745 | 1 | 71 | 8.0 | 11.3 | 0.00 | 1.12 | 0.97 | 92 | 1033.0 |
| 20260507040443 | 1 | 71 | 8.0 | 11.3 | 0.00 | 1.12 | 0.97 | 92 | 1033.0 |
| 20260507040144 | 1 | 71 | 8.0 | 11.3 | 0.00 | 1.12 | 0.97 | 92 | 1033.0 |
| 20260507035833 | 1 | 71 | 8.0 | 11.3 | 0.00 | 1.12 | 0.97 | 92 | 1033.0 |
| 20260507035533 | 1 | 71 | 8.0 | 11.3 | 0.00 | 1.14 | 0.97 | 92 | 1032.9 |
| 20260507034803 | 1 | 71 | 6.4 | 9.7 | 0.00 | 1.17 | 0.97 | 92 | 1033.0 |
| 20260507034456 | 1 | 71 | 6.4 | 9.7 | 0.00 | 1.17 | 0.97 | 92 | 1032.9 |
| 20260507034200 | 1 | 71 | 4.8 | 9.7 | 0.00 | 1.19 | 0.97 | 92 | 1033.0 |
| 20260507033854 | 1 | 71 | 4.8 | 9.7 | 0.00 | 1.19 | 0.97 | 92 | 1032.9 |
| 20260507033558 | 1 | 71 | 4.8 | 9.7 | 0.00 | 1.19 | 0.97 | 92 | 1032.9 |
| 20260507033254 | 1 | 71 | 4.8 | 9.7 | 0.00 | 1.22 | 0.97 | 92 | 1032.9 |
| 20260507032953 | 2 | 71 | 6.4 | 9.7 | 0.00 | 1.24 | 0.97 | 92 | 1032.9 |
| 20260507032642 | 2 | 71 | 6.4 | 9.7 | 0.00 | 1.24 | 0.97 | 92 | 1032.8 |
| 20260507032340 | 1 | 71 | 6.4 | 8.0 | 0.00 | 1.24 | 0.97 | 92 | 1032.8 |
| 20260507032036 | 1 | 71 | 4.8 | 8.0 | 0.00 | 1.27 | 0.97 | 91 | 1032.8 |
| 20260507031733 | 1 | 71 | 3.2 | 8.0 | 0.00 | 1.27 | 0.97 | 91 | 1032.8 |
| 20260507031434 | 1 | 71 | 3.2 | 6.4 | 0.00 | 1.27 | 0.97 | 91 | 1032.8 |
| 20260507031124 | 1 | 71 | 3.2 | 6.4 | 0.00 | 1.30 | 0.97 | 91 | 1032.8 |
| 20260507030823 | 2 | 71 | 3.2 | 6.4 | 0.00 | 1.30 | 0.97 | 91 | 1032.8 |
| 20260507030513 | 2 | 71 | 3.2 | 8.0 | 0.00 | 1.30 | 0.97 | 91 | 1032.8 |
| 20260507030205 | 2 | 71 | 4.8 | 8.0 | 0.00 | 1.32 | 0.97 | 91 | 1032.8 |
| 20260507025901 | 2 | 71 | 4.8 | 8.0 | 0.00 | 1.32 | 0.97 | 91 | 1032.6 |
| 20260507025549 | 2 | 71 | 4.8 | 8.0 | 0.00 | 1.35 | 0.97 | 91 | 1032.6 |
| 20260507024817 | 2 | 71 | 6.4 | 8.0 | 0.00 | 1.37 | 0.97 | 91 | 1032.6 |
| 20260507024505 | 2 | 71 | 6.4 | 9.7 | 0.00 | 1.40 | 0.97 | 91 | 1032.6 |
| 20260507023320 | 2 | 71 | 6.4 | 9.7 | 0.00 | 1.45 | 0.97 | 91 | 1032.6 |
| 20260507022559 | 2 | 71 | 6.4 | 9.7 | 0.00 | 1.47 | 0.97 | 90 | 1032.4 |
| 20260507022306 | 2 | 71 | 6.4 | 8.0 | 0.00 | 1.50 | 0.97 | 90 | 1032.4 |
| 20260507021954 | 2 | 71 | 6.4 | 8.0 | 0.00 | 1.50 | 0.97 | 90 | 1032.4 |
| 20260507021643 | 3 | 71 | 4.8 | 8.0 | 0.00 | 1.50 | 0.97 | 90 | 1032.3 |
| 20260507021332 | 3 | 71 | 4.8 | 8.0 | 0.00 | 1.50 | 0.97 | 90 | 1032.1 |
| 20260507021020 | 3 | 71 | 3.2 | 6.4 | 0.00 | 1.50 | 0.97 | 90 | 1032.1 |
| 20260507020722 | 3 | 71 | 3.2 | 6.4 | 0.00 | 1.50 | 0.97 | 89 | 1032.0 |
| 20260507015958 | 3 | 71 | 4.8 | 8.0 | 0.00 | 1.52 | 0.97 | 89 | 1032.1 |
| 20260507015647 | 3 | 71 | 4.8 | 8.0 | 0.00 | 1.52 | 0.97 | 90 | 1032.0 |
| 20260507015344 | 3 | 71 | 4.8 | 8.0 | 0.00 | 1.52 | 0.97 | 89 | 1032.1 |
| 20260507015043 | 3 | 71 | 4.8 | 8.0 | 0.00 | 1.52 | 0.97 | 89 | 1032.2 |
| 20260507014743 | 4 | 71 | 6.4 | 8.0 | 0.00 | 1.52 | 0.97 | 89 | 1032.0 |
| 20260507013548 | 5 | 71 | 6.4 | 9.7 | 0.00 | 1.52 | 0.97 | 89 | 1032.0 |
| 20260507013251 | 5 | 71 | 6.4 | 12.9 | 0.00 | 1.52 | 0.97 | 89 | 1032.0 |
| 20260507012942 | 5 | 71 | 6.4 | 12.9 | 0.00 | 1.52 | 0.97 | 89 | 1032.1 |
| 20260507012632 | 5 | 71 | 8.0 | 12.9 | 0.00 | 1.52 | 0.97 | 89 | 1032.0 |
| 20260507012336 | 5 | 71 | 8.0 | 12.9 | 0.00 | 1.52 | 0.97 | 89 | 1032.1 |
| 20260507012034 | 5 | 71 | 8.0 | 12.9 | 0.00 | 1.52 | 0.97 | 88 | 1032.0 |
| 20260507011736 | 5 | 71 | 8.0 | 12.9 | 0.00 | 1.52 | 0.97 | 89 | 1031.9 |
| 20260507011440 | 5 | 71 | 8.0 | 12.9 | 0.00 | 1.52 | 0.97 | 88 | 1031.9 |
| 20260507011134 | 5 | 71 | 8.0 | 12.9 | 0.00 | 1.52 | 0.97 | 88 | 1031.9 |
| 20260507010837 | 5 | 71 | 8.0 | 12.9 | 0.00 | 1.52 | 0.97 | 88 | 1031.8 |
| 20260507010523 | 5 | 73 | 9.7 | 12.9 | 0.00 | 1.52 | 0.97 | 89 | 1031.9 |
| 20260507010225 | 5 | 73 | 9.7 | 12.9 | 0.00 | 1.52 | 0.97 | 89 | 1031.9 |
| 20260507005927 | 5 | 73 | 9.7 | 12.9 | 0.00 | 1.52 | 0.97 | 89 | 1032.0 |
| 20260507005631 | 5 | 74 | 9.7 | 12.9 | 0.00 | 1.52 | 0.97 | 89 | 1031.9 |
| 20260507005330 | 5 | 74 | 9.7 | 12.9 | 0.00 | 1.52 | 0.97 | 89 | 1031.9 |
| 20260507005018 | 5 | 74 | 9.7 | 12.9 | 0.00 | 1.52 | 0.97 | 88 | 1031.9 |
| 20260507004713 | 5 | 74 | 9.7 | 12.9 | 0.00 | 1.52 | 0.97 | 89 | 1031.9 |
| 20260507004416 | 5 | 74 | 9.7 | 12.9 | 0.00 | 1.52 | 0.97 | 89 | 1031.9 |
| 20260507003650 | 5 | 74 | 9.7 | 14.5 | 0.00 | 1.52 | 0.97 | 90 | 1031.9 |
| 20260507003342 | 5 | 75 | 8.0 | 14.5 | 0.00 | 1.52 | 0.97 | 90 | 1031.9 |
| 20260507003037 | 5 | 75 | 8.0 | 14.5 | 0.00 | 1.52 | 0.97 | 90 | 1031.9 |
| 20260507002737 | 5 | 75 | 8.0 | 14.5 | 0.00 | 1.52 | 0.97 | 90 | 1031.9 |
| 20260507002433 | 5 | 75 | 9.7 | 14.5 | 0.00 | 1.52 | 0.97 | 90 | 1031.8 |
| 20260507002119 | 5 | 74 | 9.7 | 14.5 | 0.00 | 1.52 | 0.97 | 89 | 1031.9 |
| 20260507001349 | 5 | 74 | 8.0 | 12.9 | 0.00 | 1.52 | 0.97 | 90 | 1032.0 |
| 20260507001048 | 5 | 74 | 8.0 | 12.9 | 0.00 | 1.52 | 0.97 | 89 | 1032.0 |
| 20260507000746 | 5 | 74 | 8.0 | 12.9 | 0.00 | 1.52 | 0.97 | 90 | 1031.9 |
| 20260507000033 | 5 | 73 | 8.0 | 12.9 | 0.00 | 1.52 | 0.97 | 90 | 1031.9 |
| 20260506235733 | 5 | 73 | 8.0 | 12.9 | 0.00 | 1.52 | 0.97 | 90 | 1032.0 |
| 20260506235432 | 5 | 73 | 8.0 | 12.9 | 0.00 | 1.52 | 0.97 | 90 | 1032.0 |
| 20260506235135 | 5 | 74 | 8.0 | 12.9 | 0.00 | 1.52 | 0.97 | 91 | 1032.1 |
| 20260506234836 | 5 | 74 | 6.4 | 12.9 | 0.00 | 1.52 | 0.97 | 92 | 1032.1 |
| 20260506234530 | 5 | 74 | 8.0 | 12.9 | 0.00 | 1.52 | 0.97 | 90 | 1032.2 |
| 20260506234225 | 5 | 74 | 6.4 | 12.9 | 0.00 | 1.52 | 0.97 | 90 | 1032.2 |
| 20260506233912 | 5 | 74 | 6.4 | 12.9 | 0.00 | 1.52 | 0.97 | 90 | 1032.3 |
| 20260506233600 | 5 | 74 | 6.4 | 9.7 | 0.00 | 1.52 | 0.97 | 91 | 1032.2 |
| 20260506233254 | 5 | 74 | 6.4 | 9.7 | 0.00 | 1.52 | 0.97 | 91 | 1032.1 |
| 20260506232533 | 5 | 74 | 4.8 | 12.9 | 0.00 | 1.52 | 0.97 | 91 | 1032.2 |
| 20260506232235 | 5 | 74 | 4.8 | 12.9 | 0.00 | 1.52 | 0.97 | 91 | 1032.2 |
| 20260506231505 | 5 | 74 | 8.0 | 12.9 | 0.00 | 1.52 | 0.97 | 91 | 1032.4 |
| 20260506231151 | 5 | 74 | 8.0 | 12.9 | 0.00 | 1.52 | 0.97 | 91 | 1032.6 |
| 20260506230849 | 5 | 74 | 6.4 | 11.3 | 0.00 | 1.52 | 0.97 | 91 | 1032.6 |
| 20260506230549 | 5 | 74 | 8.0 | 11.3 | 0.00 | 1.52 | 0.97 | 91 | 1032.5 |
| 20260506230253 | 5 | 74 | 6.4 | 11.3 | 0.00 | 1.52 | 0.97 | 92 | 1032.3 |
| 20260506225521 | 4 | 74 | 6.4 | 11.3 | 0.00 | 1.47 | 0.97 | 91 | 1032.1 |
| 20260506225222 | 4 | 74 | 6.4 | 11.3 | 0.00 | 1.47 | 0.94 | 91 | 1032.2 |
| 20260506224922 | 4 | 74 | 6.4 | 9.7 | 0.10 | 1.47 | 0.94 | 91 | 1032.2 |
| 20260506224619 | 4 | 74 | 4.8 | 9.7 | 0.13 | 1.47 | 0.94 | 91 | 1032.1 |
| 20260506224322 | 4 | 74 | 4.8 | 9.7 | 0.13 | 1.47 | 0.94 | 91 | 1032.1 |
| 20260506224008 | 4 | 74 | 6.4 | 9.7 | 0.13 | 1.47 | 0.94 | 91 | 1032.0 |
| 20260506223701 | 4 | 74 | 6.4 | 9.7 | 0.13 | 1.47 | 0.94 | 91 | 1032.0 |
| 20260506223357 | 4 | 74 | 6.4 | 9.7 | 0.10 | 1.47 | 0.91 | 91 | 1032.1 |
| 20260506223054 | 4 | 74 | 6.4 | 9.7 | 0.10 | 1.47 | 0.91 | 91 | 1032.3 |
| 20260506222744 | 4 | 74 | 6.4 | 9.7 | 0.10 | 1.47 | 0.91 | 91 | 1032.3 |
| 20260506222031 | 4 | 74 | 6.4 | 9.7 | 0.00 | 1.47 | 0.89 | 91 | 1032.3 |
| 20260506221733 | 4 | 74 | 6.4 | 9.7 | 0.00 | 1.47 | 0.89 | 91 | 1032.2 |
| 20260506221012 | 4 | 74 | 6.4 | 9.7 | 0.00 | 1.47 | 0.89 | 92 | 1032.4 |
| 20260506220706 | 4 | 74 | 6.4 | 9.7 | 0.00 | 1.45 | 0.86 | 92 | 1032.3 |
| 20260506215939 | 4 | 74 | 6.4 | 9.7 | 0.00 | 1.45 | 0.86 | 92 | 1032.4 |
| 20260506215625 | 4 | 74 | 4.8 | 9.7 | 0.00 | 1.47 | 0.86 | 92 | 1032.2 |
| 20260506214015 | 4 | 74 | 1.6 | 8.0 | 0.00 | 1.50 | 0.86 | 92 | 1032.3 |
| 20260506213702 | 4 | 74 | 1.6 | 6.4 | 0.00 | 1.50 | 0.86 | 93 | 1032.2 |
| 20260506212949 | 4 | 74 | 1.6 | 6.4 | 0.00 | 1.50 | 0.86 | 93 | 1032.2 |
| 20260506212649 | 4 | 74 | 1.6 | 6.4 | 0.00 | 1.50 | 0.86 | 93 | 1032.2 |
| 20260506212342 | 4 | 74 | 1.6 | 6.4 | 0.00 | 1.50 | 0.86 | 93 | 1032.1 |
| 20260506212034 | 4 | 74 | 3.2 | 0.0 | 0.00 | 1.50 | 0.86 | 93 | 1032.2 |
| 20260506211728 | 4 | 74 | 1.6 | 6.4 | 0.00 | 1.50 | 0.86 | 93 | 1032.2 |
| 20260506211417 | 4 | 74 | 1.6 | 6.4 | 0.00 | 1.50 | 0.86 | 93 | 1032.3 |
| 20260506211113 | 4 | 74 | 0.0 | 6.4 | 0.00 | 1.50 | 0.86 | 93 | 1032.3 |
| 20260506210816 | 4 | 74 | 0.0 | 0.0 | 0.00 | 1.50 | 0.86 | 93 | 1032.3 |
| 20260506210504 | 4 | 74 | 0.0 | 8.0 | 0.00 | 1.50 | 0.86 | 93 | 1032.2 |
| 20260506210156 | 4 | 74 | 0.0 | 8.0 | 0.00 | 1.50 | 0.86 | 93 | 1032.2 |
| 20260506205843 | 4 | 74 | 1.6 | 8.0 | 0.00 | 1.50 | 0.86 | 93 | 1032.3 |
| 20260506205539 | 4 | 74 | 0.0 | 8.0 | 0.00 | 1.50 | 0.86 | 93 | 1032.3 |
| 20260506205226 | 4 | 74 | 0.0 | 8.0 | 0.00 | 1.50 | 0.86 | 93 | 1032.3 |
| 20260506204921 | 4 | 74 | 0.0 | 0.0 | 0.00 | 1.50 | 0.86 | 94 | 1032.3 |
| 20260506204617 | 4 | 74 | 0.0 | 8.0 | 0.00 | 1.50 | 0.86 | 94 | 1032.2 |
| 20260506204308 | 4 | 74 | 0.0 | 6.4 | 0.00 | 1.50 | 0.86 | 93 | 1032.2 |
| 20260506204001 | 3 | 74 | 1.6 | 6.4 | 0.00 | 1.50 | 0.86 | 93 | 1032.2 |
| 20260506203648 | 3 | 74 | 1.6 | 6.4 | 0.00 | 1.50 | 0.86 | 93 | 1032.2 |
| 20260506203348 | 3 | 74 | 1.6 | 8.0 | 0.00 | 1.50 | 0.86 | 93 | 1032.2 |
| 20260506203043 | 4 | 74 | 1.6 | 8.0 | 0.00 | 1.50 | 0.86 | 94 | 1032.2 |
| 20260506202742 | 3 | 74 | 1.6 | 0.0 | 0.00 | 1.50 | 0.86 | 93 | 1032.4 |
| 20260506202440 | 3 | 74 | 4.8 | 0.0 | 0.00 | 1.50 | 0.86 | 93 | 1032.3 |
| 20260506202138 | 3 | 74 | 4.8 | 8.0 | 0.00 | 1.50 | 0.86 | 93 | 1032.4 |
| 20260506201840 | 3 | 74 | 3.2 | 8.0 | 0.00 | 1.50 | 0.86 | 94 | 1032.4 |
| 20260506201533 | 3 | 74 | 3.2 | 8.0 | 0.00 | 1.50 | 0.84 | 94 | 1032.4 |
| 20260506201222 | 3 | 74 | 3.2 | 8.0 | 0.00 | 1.50 | 0.84 | 93 | 1032.4 |
| 20260506200920 | 3 | 74 | 3.2 | 8.0 | 0.00 | 1.50 | 0.84 | 93 | 1032.3 |
| 20260506200617 | 4 | 74 | 3.2 | 8.0 | 0.00 | 1.50 | 0.84 | 94 | 1032.3 |
| 20260506200305 | 4 | 74 | 1.6 | 8.0 | 0.00 | 1.50 | 0.84 | 94 | 1032.3 |
| 20260506200008 | 4 | 74 | 0.0 | 6.4 | 0.00 | 1.50 | 0.84 | 94 | 1032.2 |
| 20260506195706 | 4 | 74 | 0.0 | 8.0 | 0.00 | 1.50 | 0.84 | 94 | 1032.2 |
| 20260506195352 | 3 | 74 | 1.6 | 8.0 | 0.00 | 1.50 | 0.84 | 94 | 1032.3 |
| 20260506195054 | 3 | 74 | 1.6 | 8.0 | 0.00 | 1.50 | 0.84 | 94 | 1032.1 |
| 20260506194754 | 3 | 74 | 1.6 | 8.0 | 0.00 | 1.50 | 0.84 | 93 | 1032.1 |
| 20260506194440 | 3 | 74 | 1.6 | 8.0 | 0.00 | 1.50 | 0.84 | 94 | 1032.2 |
| 20260506194138 | 3 | 74 | 1.6 | 8.0 | 0.00 | 1.50 | 0.84 | 94 | 1032.2 |
| 20260506193827 | 3 | 74 | 1.6 | 8.0 | 0.00 | 1.50 | 0.84 | 94 | 1032.2 |
| 20260506193523 | 4 | 74 | 1.6 | 8.0 | 0.00 | 1.50 | 0.84 | 94 | 1032.2 |
| 20260506193226 | 3 | 74 | 1.6 | 8.0 | 0.00 | 1.50 | 0.84 | 94 | 1032.2 |
| 20260506192925 | 3 | 74 | 1.6 | 8.0 | 0.00 | 1.50 | 0.84 | 94 | 1032.2 |
| 20260506192159 | 3 | 74 | 4.8 | 11.3 | 0.00 | 1.50 | 0.84 | 94 | 1032.0 |
| 20260506191848 | 3 | 74 | 4.8 | 11.3 | 0.00 | 1.50 | 0.84 | 94 | 1032.0 |
| 20260506191548 | 3 | 74 | 4.8 | 11.3 | 0.00 | 1.50 | 0.84 | 94 | 1031.9 |
| 20260506191246 | 4 | 74 | 4.8 | 11.3 | 0.00 | 1.50 | 0.84 | 94 | 1032.0 |
| 20260506190937 | 4 | 74 | 3.2 | 11.3 | 0.00 | 1.50 | 0.84 | 94 | 1032.1 |
| 20260506190209 | 3 | 74 | 1.6 | 9.7 | 0.00 | 1.50 | 0.84 | 94 | 1032.2 |
| 20260506185907 | 3 | 74 | 3.2 | 9.7 | 0.00 | 1.50 | 0.84 | 94 | 1032.2 |
| 20260506185605 | 3 | 74 | 3.2 | 9.7 | 0.00 | 1.47 | 0.81 | 94 | 1032.2 |
| 20260506184840 | 3 | 74 | 1.6 | 8.0 | 0.00 | 1.47 | 0.81 | 94 | 1032.4 |
| 20260506184532 | 3 | 74 | 0.0 | 8.0 | 0.00 | 1.47 | 0.81 | 94 | 1032.4 |
| 20260506184234 | 3 | 74 | 0.0 | 4.8 | 0.00 | 1.47 | 0.81 | 94 | 1032.5 |
| 20260506183925 | 3 | 74 | 0.0 | 3.2 | 0.00 | 1.47 | 0.81 | 94 | 1032.4 |
| 20260506183616 | 3 | 74 | 1.6 | 6.4 | 0.00 | 1.47 | 0.81 | 94 | 1032.5 |
| 20260506183305 | 3 | 74 | 1.6 | 6.4 | 0.00 | 1.47 | 0.81 | 94 | 1032.5 |
| 20260506183001 | 3 | 74 | 1.6 | 6.4 | 0.00 | 1.47 | 0.81 | 94 | 1032.5 |
| 20260506182658 | 3 | 74 | 1.6 | 6.4 | 0.00 | 1.47 | 0.81 | 94 | 1032.6 |
| 20260506182344 | 3 | 74 | 1.6 | 6.4 | 0.00 | 1.45 | 0.81 | 94 | 1032.7 |
| 20260506182042 | 3 | 74 | 1.6 | 6.4 | 0.00 | 1.45 | 0.79 | 94 | 1032.7 |
| 20260506181737 | 3 | 74 | 1.6 | 6.4 | 0.00 | 1.45 | 0.79 | 94 | 1032.7 |
| 20260506181425 | 3 | 74 | 1.6 | 8.0 | 0.00 | 1.45 | 0.79 | 94 | 1032.7 |
| 20260506181112 | 3 | 74 | 1.6 | 8.0 | 0.00 | 1.45 | 0.79 | 94 | 1032.7 |
| 20260506180814 | 2 | 74 | 1.6 | 8.0 | 0.00 | 1.45 | 0.79 | 94 | 1032.7 |
| 20260506180516 | 2 | 74 | 1.6 | 9.7 | 0.00 | 1.45 | 0.79 | 94 | 1032.7 |
| 20260506180202 | 2 | 74 | 3.2 | 9.7 | 0.00 | 1.45 | 0.79 | 94 | 1032.6 |
| 20260506175902 | 2 | 74 | 3.2 | 9.7 | 0.10 | 1.45 | 0.79 | 94 | 1032.7 |
| 20260506175549 | 2 | 74 | 4.8 | 9.7 | 0.13 | 1.45 | 0.79 | 94 | 1032.7 |
| 20260506175240 | 2 | 74 | 4.8 | 9.7 | 0.13 | 1.45 | 0.79 | 94 | 1032.7 |
| 20260506174943 | 2 | 74 | 4.8 | 9.7 | 0.13 | 1.45 | 0.79 | 94 | 1032.7 |
| 20260506174635 | 2 | 74 | 3.2 | 9.7 | 0.13 | 1.45 | 0.79 | 94 | 1032.7 |
| 20260506174323 | 2 | 74 | 3.2 | 8.0 | 0.13 | 1.40 | 0.79 | 94 | 1032.7 |
| 20260506174025 | 2 | 74 | 3.2 | 8.0 | 0.13 | 1.40 | 0.76 | 94 | 1032.7 |
| 20260506173302 | 2 | 74 | 4.8 | 11.3 | 0.13 | 1.40 | 0.76 | 94 | 1032.8 |
| 20260506172958 | 2 | 74 | 6.4 | 11.3 | 0.15 | 1.40 | 0.71 | 94 | 1032.6 |
| 20260506172701 | 2 | 74 | 4.8 | 11.3 | 0.23 | 1.40 | 0.71 | 94 | 1032.7 |
| 20260506172358 | 2 | 74 | 4.8 | 11.3 | 0.23 | 1.40 | 0.71 | 94 | 1032.7 |
| 20260506172050 | 1 | 74 | 4.8 | 11.3 | 0.15 | 1.37 | 0.69 | 94 | 1032.7 |
| 20260506171738 | 1 | 74 | 4.8 | 8.0 | 0.15 | 1.37 | 0.69 | 94 | 1032.7 |
| 20260506171432 | 1 | 74 | 4.8 | 8.0 | 0.15 | 1.32 | 0.69 | 94 | 1032.6 |
| 20260506171132 | 1 | 74 | 3.2 | 8.0 | 0.30 | 1.32 | 0.69 | 94 | 1032.6 |
| 20260506170824 | 1 | 74 | 4.8 | 8.0 | 0.30 | 1.32 | 0.69 | 94 | 1032.5 |
| 20260506170514 | 1 | 74 | 4.8 | 8.0 | 0.25 | 1.32 | 0.66 | 94 | 1032.5 |
| 20260506170201 | 1 | 74 | 4.8 | 8.0 | 0.25 | 1.27 | 0.66 | 94 | 1032.5 |
| 20260506165020 | 1 | 74 | 3.2 | 8.0 | 0.33 | 1.24 | 0.58 | 94 | 1032.3 |
| 20260506164721 | 1 | 74 | 3.2 | 8.0 | 0.38 | 1.24 | 0.58 | 94 | 1032.3 |
| 20260506164417 | 1 | 74 | 4.8 | 8.0 | 0.23 | 1.19 | 0.53 | 94 | 1032.3 |
| 20260506164106 | 1 | 74 | 4.8 | 8.0 | 0.25 | 1.19 | 0.53 | 94 | 1032.2 |
| 20260506163756 | 1 | 74 | 4.8 | 8.0 | 0.25 | 1.19 | 0.53 | 93 | 1032.2 |
| 20260506163445 | 1 | 74 | 3.2 | 8.0 | 0.20 | 1.17 | 0.51 | 93 | 1032.1 |
| 20260506163137 | 1 | 74 | 3.2 | 6.4 | 0.20 | 1.17 | 0.51 | 93 | 1032.0 |
| 20260506162827 | 1 | 74 | 1.6 | 6.4 | 0.20 | 1.14 | 0.48 | 93 | 1032.1 |
| 20260506162522 | 1 | 74 | 1.6 | 6.4 | 0.20 | 1.14 | 0.48 | 93 | 1032.0 |
| 20260506162211 | 1 | 74 | 1.6 | 6.4 | 0.20 | 1.12 | 0.48 | 94 | 1032.0 |
| 20260506161904 | 1 | 74 | 1.6 | 6.4 | 0.15 | 1.12 | 0.46 | 93 | 1032.0 |
| 20260506161556 | 1 | 74 | 1.6 | 6.4 | 0.15 | 1.07 | 0.46 | 94 | 1031.9 |
| 20260506161258 | 1 | 74 | 1.6 | 6.4 | 0.20 | 1.07 | 0.43 | 94 | 1031.9 |
| 20260506160954 | 1 | 74 | 3.2 | 8.0 | 0.20 | 1.07 | 0.43 | 93 | 1031.7 |